This demonstration page uses our WeatherBlox Daily Observations layout. Learn more.

Left ArrowRight Arrow

Hourly Observations for March 1, 2019

Temp ( °F °C ) Dew Point ( °F °C ) Humidity (%) Winds ( mph kmh ) Pressure ( in mb ) Visibility ( mi km ) Precip ( " mm )
12:57 am 00:57 Clear 9 -12.8 6 -14.4 88 88 S 6 9 30.22 1023 10 16 0.00 0.00
1:57 am 01:57 Mostly Clear 11 -11.7 7 -13.9 84 84 SSE 14 22 30.08 1019 10 16 0.00 0.00
2:57 am 02:57 Partly Cloudy 14 -10 9 -12.8 80 80 SSW 9 15 30.09 1019 10 16 0.00 0.00
3:57 am 03:57 Mostly Cloudy 13 -10.6 9 -12.8 84 84 SSW 8 13 30.09 1019 10 16 0.00 0.00
4:57 am 04:57 Mostly Clear 10 -12.2 7 -13.9 87 87 S 6 9 30.07 1018 10 16 0.00 0.00
5:57 am 05:57 Partly Cloudy 11 -11.7 7 -13.9 84 84 Calm 30.09 1019 10 16 0.00 0.00
6:57 am 06:57 Mostly Cloudy 11 -11.7 8 -13.3 88 88 S 12 19 30.07 1018 10 16 0.00 0.00
7:57 am 07:57 Cloudy 14 -10 10 -12.2 84 84 S 20 31 30.01 1016 10 16 0.00 0.00
8:57 am 08:57 Sunny 15 -9.4 10 -12.2 80 80 SSW 10 17 30.05 1018 10 16 0.00 0.00
9:57 am 09:57 Sunny with Light Snow 18 -7.8 13 -10.6 81 81 SSW 16 26 30.04 1017 6 10 0.00 0.03
10:57 am 10:57 Sunny 23 -5 17 -8.3 78 78 W 8 13 30.10 1019 10 16 0.00 0.03
11:57 am 11:57 Sunny 26 -3.3 18 -7.8 71 71 W 9 15 30.11 1020 10 16 0.00 0.00
12:35 pm 12:35 Mostly Cloudy 27 -3 19 -7 74 74 W 7 11 30.14 1021 10 16 0.00 0.00
12:57 pm 12:57 Cloudy 28 -2.2 20 -6.7 72 72 W 7 11 30.11 1020 10 16 0.00 0.00
1:57 pm 13:57 Cloudy with Light Wintry Mix 33 0.6 24 -4.4 70 70 NNW 21 33 30.11 1020 10 16 0.00 0.03
2:57 pm 14:57 Mostly Cloudy 29 -1.7 22 -5.6 75 75 N 23 37 30.16 1021 10 16 0.00 0.03
3:46 pm 15:46 Mostly Cloudy 27 -3 21 -6 80 80 N 21 33 30.23 1024 9 14 0.00 0.03
3:57 pm 15:57 Mostly Cloudy 27 -2.8 20 -6.7 75 75 NNW 16 26 30.20 1023 10 16 0.00 0.03
4:57 pm 16:57 Partly Cloudy 26 -3.3 19 -7.2 75 75 N 20 31 30.24 1024 10 16 0.00 0.00
5:57 pm 17:57 Mostly Cloudy 25 -3.9 18 -7.8 75 75 N 15 24 30.26 1025 10 16 0.00 0.00
6:57 pm 18:57 Clear 22 -5.6 16 -8.9 78 78 N 13 20 30.29 1026 10 16 0.00 0.00
7:57 pm 19:57 Clear 18 -7.8 13 -10.6 81 81 NE 5 7 30.33 1027 10 16 0.00 0.00
8:57 pm 20:57 Mostly Cloudy 13 -10.6 10 -12.2 88 88 NNE 9 15 30.35 1028 10 16 0.00 0.00
9:57 pm 21:57 Cloudy 18 -7.8 14 -10 84 84 NNE 9 15 30.35 1028 10 16 0.00 0.00
10:57 pm 22:57 Cloudy 19 -7.2 15 -9.4 84 84 N 9 15 30.33 1027 10 16 0.00 0.00
11:57 pm 23:57 Cloudy 19 -7.2 15 -9.4 84 84 NNW 5 7 30.35 1028 10 16 0.00 0.00

Powered by AerisWeather